This is the latest recevied weather packets stored in our database for station/object KJ7HSW. If no packets are shown the sender has not sent any weather packets the latest 10 day(s).
| Time | Temp. | Humidity | Pressure | Rain* | Wind** | Luminosity | Snow |
|---|---|---|---|---|---|---|---|
| 1788146554 | 61° F | 79% | 764.1 mmHg | 0 in | - | 0 W/m² | - |
| 1788146249 | 61° F | 79% | 764.2 mmHg | 0 in | - | 0 W/m² | - |
| 1788145943 | 62° F | 79% | 764.1 mmHg | 0 in | - | 0 W/m² | - |
| 1788145643 | 62° F | 78% | 764 mmHg | 0 in | - | 0 W/m² | - |
| 1788145341 | 62° F | 75% | 764.1 mmHg | 0 in | - | 1 W/m² | - |
| 1788145040 | 62° F | 78% | 764 mmHg | 0 in | - | 2 W/m² | - |
| 1788144735 | 62° F | 72% | 764.1 mmHg | 0 in | - | 3 W/m² | - |
| 1788144431 | 62° F | 76% | 764.2 mmHg | 0 in | - | 4 W/m² | - |
| 1788144130 | 63° F | 77% | 764.1 mmHg | 0 in | - | 6 W/m² | - |
| 1788143829 | 63° F | 78% | 764.1 mmHg | 0 in | - | 9 W/m² | - |
| 1788143528 | 63° F | 75% | 764 mmHg | 0 in | - | 11 W/m² | - |
| 1788143222 | 63° F | 72% | 764.1 mmHg | 0 in | - | 15 W/m² | - |
| 1788142917 | 64° F | 73% | 764 mmHg | 0 in | - | 19 W/m² | - |
| 1788142617 | 64° F | 71% | 764 mmHg | 0 in | - | 22 W/m² | - |
| 1788142311 | 64° F | 69% | 764.1 mmHg | 0 in | - | 25 W/m² | - |
| 1788142008 | 64° F | 70% | 764.2 mmHg | 0 in | - | 29 W/m² | - |
| 1788141702 | 64° F | 72% | 764.1 mmHg | 0 in | - | 32 W/m² | - |
| 1788141398 | 64° F | 70% | 764.2 mmHg | 0 in | - | 36 W/m² | - |
| 1788141097 | 64° F | 68% | 764.1 mmHg | 0 in | - | 38 W/m² | - |
| 1788140792 | 64° F | 69% | 764.2 mmHg | 0 in | - | 38 W/m² | - |
| 1788140488 | 65° F | 70% | 764.2 mmHg | 0 in | - | 46 W/m² | - |
| 1788140184 | 64° F | 67% | 764.2 mmHg | 0 in | - | 46 W/m² | - |
| 1788139883 | 65° F | 71% | 764.3 mmHg | 0 in | - | 54 W/m² | - |
| 1788139578 | 65° F | 70% | 764.2 mmHg | 0 in | - | 73 W/m² | - |
| 1788139274 | 65° F | 70% | 764.2 mmHg | 0 in | - | 58 W/m² | - |
* Rain latest hour (hover to see other rain measurements)
** Current wind speed in m/s (hover to see current wind gust speed)